FDX131 CYMX-KMEM

Flight info

Callsign FDX131
Flight time 2h 22m
Altitude 32000
Route KESKA DCT SAVEX DCT KANUR DCT LETAK Q824 GOPUP DCT HOCKE DCT FWA DCT MZZ DCT VHP DCT PXV BLUZZ5
Aircraft B77L/H-SDE1E2E3FGHIJ2J3J4J5M1RWXY/LB1D1

Departure

Time 2026-04-23 10:55
Airport Montreal Mirabel International Airport (CYMX)

Arrival

Time 2026-04-23 13:17
Airport Memphis International Airport (KMEM)
Time Latitude Longitude Altitude Speed Heading
2026-04-23 10:02 45.67958 -74.04346 278 ft 0 kts 278°
2026-04-23 10:42 45.67957 -74.04333 277 ft 4 kts 278°
2026-04-23 10:43 45.67953 -74.04297 282 ft 2 kts 279°
2026-04-23 10:43 45.67951 -74.04266 281 ft 4 kts 256°
2026-04-23 10:43 45.67959 -74.04241 282 ft 4 kts 212°
2026-04-23 10:43 45.67982 -74.04229 283 ft 3 kts 188°
2026-04-23 10:44 45.67984 -74.04228 282 ft 0 kts 188°
2026-04-23 10:47 45.67974 -74.04230 282 ft 6 kts 188°
2026-04-23 10:47 45.67890 -74.04248 278 ft 15 kts 188°
2026-04-23 10:47 45.67788 -74.04270 278 ft 15 kts 188°
2026-04-23 10:47 45.67687 -74.04292 278 ft 15 kts 191°
2026-04-23 10:48 45.67585 -74.04315 279 ft 15 kts 188°
2026-04-23 10:48 45.67483 -74.04336 279 ft 15 kts 188°
2026-04-23 10:48 45.67381 -74.04357 280 ft 15 kts 188°
2026-04-23 10:48 45.67278 -74.04379 281 ft 15 kts 188°
2026-04-23 10:49 45.67183 -74.04351 281 ft 15 kts 130°
2026-04-23 10:49 45.67156 -74.04210 282 ft 15 kts 100°
2026-04-23 10:49 45.67165 -74.04066 281 ft 15 kts 69°
2026-04-23 10:49 45.67201 -74.03930 280 ft 15 kts 70°
2026-04-23 10:50 45.67236 -74.03791 279 ft 15 kts 70°
2026-04-23 10:50 45.67271 -74.03652 278 ft 15 kts 70°
2026-04-23 10:50 45.67307 -74.03514 279 ft 15 kts 69°
2026-04-23 10:50 45.67342 -74.03375 275 ft 15 kts 70°
2026-04-23 10:51 45.67378 -74.03237 277 ft 15 kts 70°
2026-04-23 10:51 45.67413 -74.03100 273 ft 15 kts 70°
2026-04-23 10:51 45.67449 -74.02962 272 ft 15 kts 70°
2026-04-23 10:51 45.67484 -74.02823 273 ft 15 kts 70°
2026-04-23 10:52 45.67520 -74.02686 271 ft 13 kts 70°
2026-04-23 10:52 45.67503 -74.02580 270 ft 12 kts 138°
2026-04-23 10:52 45.67429 -74.02526 270 ft 12 kts 156°
2026-04-23 10:52 45.67354 -74.02479 269 ft 12 kts 156°
2026-04-23 10:53 45.67278 -74.02431 269 ft 12 kts 156°
2026-04-23 10:53 45.67206 -74.02372 269 ft 12 kts 138°
2026-04-23 10:53 45.67146 -74.02290 269 ft 12 kts 136°
2026-04-23 10:53 45.67092 -74.02198 268 ft 12 kts 126°
2026-04-23 10:54 45.67101 -74.02088 267 ft 12 kts 51°
2026-04-23 10:54 45.67178 -74.01978 267 ft 27 kts 45°
2026-04-23 10:54 45.67452 -74.01586 266 ft 92 kts 45°
2026-04-23 10:54 45.68068 -74.00711 261 ft 158 kts 44°
2026-04-23 10:55 45.68927 -73.99483 597 ft 175 kts 45°
2026-04-23 10:55 45.69756 -73.98223 1366 ft 174 kts 49°
2026-04-23 10:55 45.70602 -73.96937 1869 ft 180 kts 49°
2026-04-23 10:55 45.71466 -73.95632 2414 ft 181 kts 48°
2026-04-23 10:56 45.72336 -73.94320 2926 ft 183 kts 48°
2026-04-23 10:56 45.73220 -73.92969 3379 ft 188 kts 47°
2026-04-23 10:56 45.74126 -73.91534 3590 ft 207 kts 53°
2026-04-23 10:56 45.74667 -73.89523 3709 ft 227 kts 89°
2026-04-23 10:57 45.74311 -73.87280 3892 ft 247 kts 123°
2026-04-23 10:57 45.73034 -73.85618 4313 ft 256 kts 159°
2026-04-23 10:57 45.71273 -73.85353 4888 ft 260 kts 195°
2026-04-23 10:57 45.69727 -73.86624 5597 ft 259 kts 231°
2026-04-23 10:58 45.68851 -73.88851 6311 ft 259 kts 249°
2026-04-23 10:58 45.68229 -73.91286 7035 ft 261 kts 251°
2026-04-23 10:58 45.67617 -73.93727 7853 ft 260 kts 251°
2026-04-23 10:58 45.66974 -73.96144 8660 ft 260 kts 250°
2026-04-23 10:59 45.66301 -73.98545 9437 ft 261 kts 250°
2026-04-23 10:59 45.65603 -74.00948 10162 ft 262 kts 250°
2026-04-23 10:59 45.64882 -74.03379 10554 ft 278 kts 250°
2026-04-23 10:59 45.64081 -74.06030 10727 ft 301 kts 249°
2026-04-23 11:00 45.63205 -74.08887 10907 ft 325 kts 249°
2026-04-23 11:00 45.62264 -74.11933 11244 ft 343 kts 249°
2026-04-23 11:00 45.61284 -74.15088 11865 ft 353 kts 249°
2026-04-23 11:00 45.60266 -74.18312 12680 ft 358 kts 249°
2026-04-23 11:01 45.59228 -74.21572 13540 ft 363 kts 249°
2026-04-23 11:01 45.58177 -74.24867 14334 ft 367 kts 250°
2026-04-23 11:01 45.57124 -74.28169 15113 ft 370 kts 250°
2026-04-23 11:01 45.56052 -74.31531 15926 ft 373 kts 250°
2026-04-23 11:02 45.54970 -74.34919 16711 ft 377 kts 250°
2026-04-23 11:02 45.53878 -74.38340 17474 ft 380 kts 251°
2026-04-23 11:02 45.52778 -74.41785 18235 ft 384 kts 251°
2026-04-23 11:02 45.51736 -74.45295 18915 ft 384 kts 255°
2026-04-23 11:03 45.50936 -74.48918 19592 ft 383 kts 261°
2026-04-23 11:03 45.50387 -74.52634 20275 ft 383 kts 264°
2026-04-23 11:03 45.49878 -74.56379 20939 ft 385 kts 264°
2026-04-23 11:03 45.49372 -74.60094 21614 ft 388 kts 264°
2026-04-23 11:04 45.48850 -74.63880 22280 ft 390 kts 264°
2026-04-23 11:04 45.48322 -74.67686 22914 ft 393 kts 264°
2026-04-23 11:04 45.47784 -74.71529 23548 ft 396 kts 264°
2026-04-23 11:04 45.47240 -74.75390 24095 ft 398 kts 264°
2026-04-23 11:05 45.46690 -74.79280 24625 ft 401 kts 264°
2026-04-23 11:05 45.46135 -74.83185 25156 ft 403 kts 264°
2026-04-23 11:05 45.45576 -74.87115 25672 ft 405 kts 264°
2026-04-23 11:05 45.45014 -74.91063 26190 ft 408 kts 265°
2026-04-23 11:06 45.43881 -74.98977 27150 ft 413 kts 265°
2026-04-23 11:06 45.43340 -75.03013 27624 ft 413 kts 267°
2026-04-23 11:06 45.43014 -75.07081 28084 ft 412 kts 272°
2026-04-23 11:07 45.42936 -75.11155 28528 ft 413 kts 274°
2026-04-23 11:07 45.42874 -75.15213 28952 ft 415 kts 274°
2026-04-23 11:07 45.42801 -75.19347 29368 ft 418 kts 274°
2026-04-23 11:07 45.42721 -75.23508 29774 ft 420 kts 274°
2026-04-23 11:08 45.42636 -75.27684 30135 ft 423 kts 274°
2026-04-23 11:08 45.42548 -75.31868 30474 ft 424 kts 274°
2026-04-23 11:08 45.42458 -75.36069 30855 ft 424 kts 274°
2026-04-23 11:08 45.42366 -75.40203 31245 ft 423 kts 274°
2026-04-23 11:09 45.42272 -75.44397 31617 ft 423 kts 274°
2026-04-23 11:09 45.42177 -75.48595 31962 ft 424 kts 274°
2026-04-23 11:09 45.42081 -75.52784 32325 ft 424 kts 274°
2026-04-23 11:09 45.41983 -75.56995 32671 ft 423 kts 274°
2026-04-23 11:10 45.41884 -75.61188 33031 ft 423 kts 274°
2026-04-23 11:10 45.41783 -75.65375 33387 ft 423 kts 274°
2026-04-23 11:10 45.41683 -75.69509 33722 ft 423 kts 274°
2026-04-23 11:10 45.41580 -75.73690 34008 ft 424 kts 274°
2026-04-23 11:11 45.41476 -75.77906 34039 ft 428 kts 274°
2026-04-23 11:11 45.41258 -75.86349 34077 ft 424 kts 274°
2026-04-23 11:12 45.41035 -75.94698 34092 ft 421 kts 275°
2026-04-23 11:12 45.40811 -76.03014 34099 ft 420 kts 275°
2026-04-23 11:13 45.40582 -76.11347 34095 ft 421 kts 275°
2026-04-23 11:13 45.40332 -76.19630 34103 ft 423 kts 272°
2026-04-23 11:14 45.39381 -76.28003 34096 ft 433 kts 264°
2026-04-23 11:14 45.37571 -76.36276 34106 ft 440 kts 260°
2026-04-23 11:15 45.35619 -76.44539 34108 ft 440 kts 260°
2026-04-23 11:15 45.33677 -76.52802 34104 ft 441 kts 260°
2026-04-23 11:16 45.31733 -76.61088 34101 ft 442 kts 260°
2026-04-23 11:16 45.29796 -76.69323 34107 ft 442 kts 260°
2026-04-23 11:17 45.27827 -76.77661 34104 ft 443 kts 260°
2026-04-23 11:17 45.25873 -76.85909 34101 ft 443 kts 260°
2026-04-23 11:18 45.23897 -76.94204 34108 ft 443 kts 260°
2026-04-23 11:18 45.21917 -77.02497 34107 ft 444 kts 260°
2026-04-23 11:19 45.19943 -77.10737 34107 ft 444 kts 260°
2026-04-23 11:19 45.17945 -77.19047 34119 ft 445 kts 259°
2026-04-23 11:20 45.15939 -77.27361 34113 ft 446 kts 259°
2026-04-23 11:20 45.13923 -77.35688 34115 ft 447 kts 259°
2026-04-23 11:21 45.11896 -77.44025 34107 ft 447 kts 259°
2026-04-23 11:21 45.09876 -77.52301 34103 ft 448 kts 259°
2026-04-23 11:22 45.07830 -77.60656 34106 ft 449 kts 259°
2026-04-23 11:22 45.05777 -77.69008 34111 ft 449 kts 259°
2026-04-23 11:23 45.03717 -77.77361 34107 ft 450 kts 259°
2026-04-23 11:23 45.01648 -77.85716 34107 ft 451 kts 259°
2026-04-23 11:24 44.99582 -77.94029 34107 ft 451 kts 259°
2026-04-23 11:24 44.97494 -78.02399 34113 ft 452 kts 259°
2026-04-23 11:25 44.95394 -78.10788 34105 ft 453 kts 259°
2026-04-23 11:25 44.93288 -78.19174 34111 ft 453 kts 258°
2026-04-23 11:26 44.91185 -78.27513 34109 ft 454 kts 258°
2026-04-23 11:26 44.89063 -78.35895 34109 ft 454 kts 258°
2026-04-23 11:27 44.86931 -78.44290 34113 ft 454 kts 258°
2026-04-23 11:27 44.84794 -78.52672 33939 ft 455 kts 261°
2026-04-23 11:28 44.82649 -78.61068 34066 ft 461 kts 261°
2026-04-23 11:28 44.80456 -78.69615 34105 ft 464 kts 260°
2026-04-23 11:29 44.78251 -78.78158 34120 ft 464 kts 260°
2026-04-23 11:29 44.75559 -78.86463 34118 ft 473 kts 253°
2026-04-23 11:30 44.72530 -78.94680 34101 ft 472 kts 252°
2026-04-23 11:30 44.70022 -79.01473 34104 ft 470 kts 253°
2026-04-23 11:31 44.67025 -79.09639 34102 ft 468 kts 253°
2026-04-23 11:31 44.64046 -79.17780 34098 ft 467 kts 253°
2026-04-23 11:32 44.61075 -79.25882 34103 ft 466 kts 252°
2026-04-23 11:32 44.58104 -79.33961 34104 ft 465 kts 252°
2026-04-23 11:33 44.55146 -79.41978 34106 ft 465 kts 252°
2026-04-23 11:33 44.52166 -79.50031 34108 ft 466 kts 252°
2026-04-23 11:34 44.49175 -79.58088 34111 ft 466 kts 252°
2026-04-23 11:34 44.46174 -79.66146 34115 ft 466 kts 252°
2026-04-23 11:35 44.43162 -79.74211 34113 ft 467 kts 252°
2026-04-23 11:35 44.40159 -79.82231 34120 ft 468 kts 252°
2026-04-23 11:36 44.37126 -79.90306 34111 ft 469 kts 251°
2026-04-23 11:36 44.34084 -79.98380 34112 ft 469 kts 251°
2026-04-23 11:37 44.31057 -80.06391 34106 ft 469 kts 251°
2026-04-23 11:37 44.28003 -80.14450 34101 ft 469 kts 251°
2026-04-23 11:38 44.24948 -80.22487 34108 ft 468 kts 251°
2026-04-23 11:38 44.21890 -80.30515 34098 ft 468 kts 251°
2026-04-23 11:39 44.18825 -80.38532 34092 ft 468 kts 251°
2026-04-23 11:39 44.15779 -80.46481 34094 ft 468 kts 251°
2026-04-23 11:40 44.12708 -80.54471 34094 ft 468 kts 251°
2026-04-23 11:40 44.09635 -80.62443 34092 ft 468 kts 250°
2026-04-23 11:41 44.06547 -80.70432 34087 ft 468 kts 250°
2026-04-23 11:41 44.03456 -80.78405 34088 ft 469 kts 250°
2026-04-23 11:42 44.00372 -80.86339 34090 ft 469 kts 250°
2026-04-23 11:42 43.97259 -80.94323 34094 ft 470 kts 250°
2026-04-23 11:43 43.94141 -81.02301 34090 ft 470 kts 250°
2026-04-23 11:43 43.91009 -81.10288 34089 ft 471 kts 249°
2026-04-23 11:44 43.87869 -81.18275 34089 ft 472 kts 249°
2026-04-23 11:44 43.84738 -81.26216 34085 ft 472 kts 249°
2026-04-23 11:45 43.81583 -81.34196 34088 ft 472 kts 249°
2026-04-23 11:45 43.78418 -81.42180 34088 ft 472 kts 249°
2026-04-23 11:46 43.75251 -81.50148 34084 ft 472 kts 248°
2026-04-23 11:46 43.72079 -81.58106 34090 ft 472 kts 248°
2026-04-23 11:47 43.68920 -81.66020 34084 ft 472 kts 248°
2026-04-23 11:47 43.65740 -81.73975 34084 ft 472 kts 248°
2026-04-23 11:48 43.62557 -81.81916 34093 ft 472 kts 248°
2026-04-23 11:48 43.59393 -81.89789 34086 ft 472 kts 248°
2026-04-23 11:49 43.56202 -81.97705 34088 ft 472 kts 248°
2026-04-23 11:49 43.53005 -82.05616 34092 ft 472 kts 247°
2026-04-23 11:50 43.49798 -82.13530 34094 ft 472 kts 247°
2026-04-23 11:50 43.46607 -82.21381 34098 ft 473 kts 247°
2026-04-23 11:51 43.43385 -82.29286 34095 ft 473 kts 246°
2026-04-23 11:51 43.40161 -82.37176 34092 ft 474 kts 246°
2026-04-23 11:52 43.36921 -82.45082 34089 ft 474 kts 246°
2026-04-23 11:52 43.33697 -82.52930 34082 ft 474 kts 246°
2026-04-23 11:53 43.30448 -82.60821 34081 ft 474 kts 246°
2026-04-23 11:53 43.26990 -82.68571 34076 ft 480 kts 238°
2026-04-23 11:54 43.22492 -82.75426 34068 ft 488 kts 227°
2026-04-23 11:54 43.17253 -82.81427 34071 ft 491 kts 224°
2026-04-23 11:55 43.11974 -82.87288 34066 ft 490 kts 224°
2026-04-23 11:55 43.06685 -82.93199 34065 ft 489 kts 224°
2026-04-23 11:56 43.01422 -82.99121 34065 ft 489 kts 224°
2026-04-23 11:56 42.96211 -83.04988 34062 ft 488 kts 224°
2026-04-23 11:57 42.90971 -83.10874 34056 ft 488 kts 224°
2026-04-23 11:57 42.85723 -83.16753 34057 ft 487 kts 224°
2026-04-23 11:58 42.80481 -83.22611 34068 ft 487 kts 224°
2026-04-23 11:58 42.75239 -83.28455 34065 ft 487 kts 224°
2026-04-23 11:59 42.69988 -83.34296 34073 ft 487 kts 224°
2026-04-23 11:59 42.64771 -83.40086 34075 ft 487 kts 224°
2026-04-23 12:00 42.59521 -83.45899 34073 ft 487 kts 224°
2026-04-23 12:00 42.54267 -83.51704 34070 ft 487 kts 223°
2026-04-23 12:01 42.49015 -83.57495 34060 ft 487 kts 223°
2026-04-23 12:01 42.43762 -83.63274 34068 ft 487 kts 223°
2026-04-23 12:02 42.38523 -83.69023 34062 ft 487 kts 223°
2026-04-23 12:02 42.33256 -83.74791 34069 ft 487 kts 223°
2026-04-23 12:03 42.27984 -83.80551 34079 ft 487 kts 223°
2026-04-23 12:03 42.22702 -83.86310 34069 ft 487 kts 223°
2026-04-23 12:04 42.17457 -83.92016 34067 ft 487 kts 223°
2026-04-23 12:04 42.12179 -83.97744 34064 ft 486 kts 223°
2026-04-23 12:05 42.06910 -84.03451 34064 ft 486 kts 223°
2026-04-23 12:05 42.01639 -84.09147 34063 ft 485 kts 223°
2026-04-23 12:06 41.96409 -84.14787 34072 ft 484 kts 222°
2026-04-23 12:06 41.88519 -84.23271 34075 ft 484 kts 222°
2026-04-23 12:07 41.83256 -84.28916 34065 ft 483 kts 222°
2026-04-23 12:07 41.77997 -84.34544 34063 ft 483 kts 222°
2026-04-23 12:08 41.72741 -84.40156 34056 ft 482 kts 222°
2026-04-23 12:08 41.67525 -84.45714 34063 ft 482 kts 222°
2026-04-23 12:09 41.62269 -84.51303 34059 ft 482 kts 222°
2026-04-23 12:09 41.57014 -84.56879 34053 ft 482 kts 222°
2026-04-23 12:10 41.51760 -84.62442 34051 ft 482 kts 222°
2026-04-23 12:10 41.46536 -84.67961 34052 ft 482 kts 221°
2026-04-23 12:11 41.41268 -84.73515 34051 ft 483 kts 221°
2026-04-23 12:11 41.35991 -84.79067 34046 ft 483 kts 221°
2026-04-23 12:12 41.30710 -84.84610 34044 ft 484 kts 221°
2026-04-23 12:12 41.25409 -84.90164 34043 ft 484 kts 221°
2026-04-23 12:13 41.20145 -84.95667 34044 ft 485 kts 221°
2026-04-23 12:13 41.14825 -85.01216 34062 ft 486 kts 221°
2026-04-23 12:14 41.09507 -85.06753 34065 ft 486 kts 221°
2026-04-23 12:14 41.04184 -85.12284 34062 ft 486 kts 221°
2026-04-23 12:15 40.98839 -85.17826 34061 ft 486 kts 221°
2026-04-23 12:15 40.93520 -85.23285 34064 ft 487 kts 221°
2026-04-23 12:16 40.88137 -85.28742 34063 ft 487 kts 221°
2026-04-23 12:16 40.82761 -85.34186 34059 ft 487 kts 221°
2026-04-23 12:17 40.77388 -85.39627 34064 ft 487 kts 221°
2026-04-23 12:17 40.72006 -85.45067 34058 ft 487 kts 221°
2026-04-23 12:18 40.66665 -85.50456 34053 ft 486 kts 221°
2026-04-23 12:18 40.61280 -85.55876 34066 ft 486 kts 221°
2026-04-23 12:19 40.55896 -85.61286 34072 ft 486 kts 221°
2026-04-23 12:19 40.50548 -85.66649 34072 ft 486 kts 221°
2026-04-23 12:20 40.46092 -85.71149 34072 ft 486 kts 221°
2026-04-23 12:20 40.40771 -85.76626 34074 ft 486 kts 221°
2026-04-23 12:21 40.35449 -85.82106 33989 ft 486 kts 221°
2026-04-23 12:21 40.30117 -85.87570 34000 ft 486 kts 221°
2026-04-23 12:22 40.24816 -85.92982 34015 ft 486 kts 221°
2026-04-23 12:22 40.19472 -85.98425 34061 ft 486 kts 221°
2026-04-23 12:23 40.14143 -86.03842 34070 ft 487 kts 221°
2026-04-23 12:23 40.08789 -86.09275 34076 ft 487 kts 221°
2026-04-23 12:24 40.03435 -86.14697 34081 ft 487 kts 221°
2026-04-23 12:24 39.98084 -86.20105 34081 ft 487 kts 221°
2026-04-23 12:25 39.92755 -86.25480 34084 ft 487 kts 221°
2026-04-23 12:25 39.87398 -86.30874 34073 ft 487 kts 220°
2026-04-23 12:26 39.82023 -86.36249 34079 ft 487 kts 219°
2026-04-23 12:26 39.76252 -86.40933 34075 ft 489 kts 213°
2026-04-23 12:27 39.70333 -86.45351 34066 ft 490 kts 213°
2026-04-23 12:27 39.64431 -86.49769 34071 ft 489 kts 213°
2026-04-23 12:28 39.58539 -86.54214 34070 ft 490 kts 213°
2026-04-23 12:28 39.52689 -86.58636 34069 ft 490 kts 213°
2026-04-23 12:29 39.46786 -86.63090 34072 ft 490 kts 213°
2026-04-23 12:29 39.40886 -86.67532 34067 ft 490 kts 213°
2026-04-23 12:30 39.35024 -86.71934 34072 ft 490 kts 213°
2026-04-23 12:30 39.29125 -86.76355 34073 ft 490 kts 213°
2026-04-23 12:31 39.23229 -86.80766 34077 ft 489 kts 213°
2026-04-23 12:31 39.17333 -86.85169 34075 ft 489 kts 213°
2026-04-23 12:32 39.11430 -86.89568 34069 ft 490 kts 213°
2026-04-23 12:32 39.05522 -86.93962 34069 ft 489 kts 213°
2026-04-23 12:33 38.99658 -86.98314 34066 ft 489 kts 213°
2026-04-23 12:33 38.93757 -87.02685 34070 ft 489 kts 212°
2026-04-23 12:34 38.87886 -87.07026 34082 ft 489 kts 212°
2026-04-23 12:34 38.81976 -87.11387 34086 ft 489 kts 212°
2026-04-23 12:35 38.76103 -87.15713 34096 ft 489 kts 212°
2026-04-23 12:35 38.70203 -87.20050 34083 ft 489 kts 212°
2026-04-23 12:36 38.64301 -87.24380 34098 ft 489 kts 212°
2026-04-23 12:36 38.58389 -87.28710 34092 ft 488 kts 212°
2026-04-23 12:37 38.52482 -87.33028 34084 ft 488 kts 212°
2026-04-23 12:37 38.46615 -87.37308 34077 ft 488 kts 212°
2026-04-23 12:38 38.40707 -87.41610 34072 ft 488 kts 212°
2026-04-23 12:38 38.34805 -87.45899 34066 ft 488 kts 212°
2026-04-23 12:39 38.28894 -87.50187 34081 ft 488 kts 212°
2026-04-23 12:39 38.23028 -87.54434 34087 ft 488 kts 212°
2026-04-23 12:40 38.17122 -87.58702 34082 ft 488 kts 212°
2026-04-23 12:40 38.11208 -87.62968 34092 ft 488 kts 212°
2026-04-23 12:41 38.05296 -87.67226 34093 ft 488 kts 212°
2026-04-23 12:41 37.99432 -87.71441 34091 ft 487 kts 212°
2026-04-23 12:42 37.93526 -87.75678 34086 ft 487 kts 212°
2026-04-23 12:42 37.87487 -87.79627 34091 ft 488 kts 208°
2026-04-23 12:43 37.81336 -87.83302 34093 ft 488 kts 207°
2026-04-23 12:43 37.75203 -87.87009 34088 ft 488 kts 208°
2026-04-23 12:44 37.69133 -87.90729 34096 ft 488 kts 208°
2026-04-23 12:44 37.63026 -87.94471 34101 ft 488 kts 208°
2026-04-23 12:45 37.56901 -87.98205 34100 ft 489 kts 208°
2026-04-23 12:45 37.50762 -88.01929 34101 ft 489 kts 208°
2026-04-23 12:46 37.44611 -88.05657 34097 ft 490 kts 208°
2026-04-23 12:46 37.38507 -88.09351 34102 ft 490 kts 208°
2026-04-23 12:47 37.32361 -88.13064 34101 ft 490 kts 207°
2026-04-23 12:47 37.26215 -88.16771 34099 ft 490 kts 207°
2026-04-23 12:48 37.20055 -88.20481 34096 ft 490 kts 207°
2026-04-23 12:48 37.13949 -88.24151 34082 ft 490 kts 207°
2026-04-23 12:49 37.07791 -88.27845 34080 ft 490 kts 207°
2026-04-23 12:49 37.01638 -88.31526 34071 ft 490 kts 207°
2026-04-23 12:50 36.95480 -88.35203 34078 ft 490 kts 207°
2026-04-23 12:50 36.89358 -88.38855 34091 ft 490 kts 207°
2026-04-23 12:51 36.83191 -88.42528 34101 ft 490 kts 207°
2026-04-23 12:51 36.77024 -88.46193 33943 ft 493 kts 207°
2026-04-23 12:52 36.73881 -88.48060 32993 ft 504 kts 207°
2026-04-23 12:52 36.70759 -88.49912 32182 ft 503 kts 206°
2026-04-23 12:52 36.67554 -88.51812 31505 ft 515 kts 206°
2026-04-23 12:52 36.64333 -88.53718 30886 ft 508 kts 206°
2026-04-23 12:53 36.61157 -88.55596 30298 ft 502 kts 206°
2026-04-23 12:53 36.58018 -88.57449 29625 ft 491 kts 206°
2026-04-23 12:53 36.54962 -88.59252 29034 ft 482 kts 206°
2026-04-23 12:53 36.51948 -88.61029 28429 ft 477 kts 206°
2026-04-23 12:54 36.48963 -88.62789 27863 ft 472 kts 206°
2026-04-23 12:54 36.46005 -88.64531 27308 ft 468 kts 206°
2026-04-23 12:54 36.43115 -88.66231 26765 ft 463 kts 206°
2026-04-23 12:54 36.40206 -88.67942 26220 ft 459 kts 206°
2026-04-23 12:55 36.37327 -88.69634 25672 ft 456 kts 206°
2026-04-23 12:55 36.34468 -88.71312 25151 ft 453 kts 206°
2026-04-23 12:55 36.31629 -88.72978 24651 ft 449 kts 206°
2026-04-23 12:55 36.28839 -88.74612 24477 ft 437 kts 206°
2026-04-23 12:56 36.26109 -88.76210 24155 ft 430 kts 206°
2026-04-23 12:56 36.23403 -88.77792 23669 ft 429 kts 206°
2026-04-23 12:56 36.20713 -88.79363 23131 ft 427 kts 206°
2026-04-23 12:56 36.18074 -88.80904 22644 ft 423 kts 206°
2026-04-23 12:57 36.15416 -88.82455 22173 ft 420 kts 206°
2026-04-23 12:57 36.12782 -88.83989 21709 ft 416 kts 206°
2026-04-23 12:57 36.10168 -88.85513 21253 ft 413 kts 206°
2026-04-23 12:57 36.07574 -88.87024 20802 ft 410 kts 206°
2026-04-23 12:58 36.05001 -88.88522 20357 ft 407 kts 206°
2026-04-23 12:58 36.02449 -88.90006 19900 ft 404 kts 206°
2026-04-23 12:58 35.99910 -88.91482 19467 ft 402 kts 206°
2026-04-23 12:58 35.97381 -88.92950 19024 ft 399 kts 206°
2026-04-23 12:59 35.94905 -88.94388 18575 ft 397 kts 206°
2026-04-23 12:59 35.92402 -88.95838 18083 ft 395 kts 206°
2026-04-23 12:59 35.89919 -88.97276 17576 ft 393 kts 206°
2026-04-23 12:59 35.87454 -88.98705 17075 ft 389 kts 206°
2026-04-23 13:00 35.85050 -89.00096 16604 ft 376 kts 206°
2026-04-23 13:00 35.82691 -89.01460 16187 ft 372 kts 206°
2026-04-23 13:00 35.80381 -89.02797 15757 ft 369 kts 206°
2026-04-23 13:00 35.78062 -89.04135 15334 ft 366 kts 206°
2026-04-23 13:01 35.75766 -89.05460 14911 ft 363 kts 206°
2026-04-23 13:01 35.73502 -89.06806 14490 ft 357 kts 210°
2026-04-23 13:01 35.71599 -89.08679 14058 ft 347 kts 227°
2026-04-23 13:01 35.69984 -89.10867 13638 ft 343 kts 228°
2026-04-23 13:02 35.68372 -89.13027 13192 ft 341 kts 227°
2026-04-23 13:02 35.66761 -89.15151 12775 ft 337 kts 227°
2026-04-23 13:02 35.65158 -89.17241 12375 ft 334 kts 226°
2026-04-23 13:02 35.63563 -89.19307 11971 ft 331 kts 226°
2026-04-23 13:03 35.61989 -89.21342 11659 ft 325 kts 226°
2026-04-23 13:03 35.60458 -89.23316 11516 ft 314 kts 226°
2026-04-23 13:03 35.58993 -89.25216 11430 ft 307 kts 226°
2026-04-23 13:03 35.57490 -89.27167 11441 ft 326 kts 226°
2026-04-23 13:04 35.55898 -89.29235 11413 ft 334 kts 226°
2026-04-23 13:04 35.54351 -89.31348 11226 ft 331 kts 231°
2026-04-23 13:04 35.53017 -89.33592 10952 ft 312 kts 234°
2026-04-23 13:04 35.51827 -89.35691 10732 ft 286 kts 234°
2026-04-23 13:05 35.50713 -89.37621 10390 ft 269 kts 234°
2026-04-23 13:05 35.49650 -89.39423 10079 ft 258 kts 231°
2026-04-23 13:05 35.48506 -89.41139 10048 ft 265 kts 229°
2026-04-23 13:05 35.47301 -89.42866 10012 ft 267 kts 229°
2026-04-23 13:06 35.45253 -89.46475 9926 ft 254 kts 244°
2026-04-23 13:06 35.44544 -89.48447 9639 ft 252 kts 246°
2026-04-23 13:06 35.43855 -89.50429 9220 ft 252 kts 246°
2026-04-23 13:07 35.43159 -89.52413 8760 ft 254 kts 246°
2026-04-23 13:07 35.42454 -89.54394 8376 ft 253 kts 245°
2026-04-23 13:07 35.41747 -89.56356 8030 ft 250 kts 245°
2026-04-23 13:07 35.41054 -89.58259 7794 ft 245 kts 244°
2026-04-23 13:08 35.40357 -89.60159 7588 ft 243 kts 245°
2026-04-23 13:08 35.39662 -89.62048 7376 ft 243 kts 245°
2026-04-23 13:08 35.38960 -89.63946 7181 ft 245 kts 245°
2026-04-23 13:08 35.38251 -89.65853 6975 ft 247 kts 244°
2026-04-23 13:09 35.37532 -89.67780 6756 ft 249 kts 244°
2026-04-23 13:09 35.36812 -89.69713 6549 ft 250 kts 244°
2026-04-23 13:09 35.36329 -89.71004 6401 ft 251 kts 244°
2026-04-23 13:09 35.35367 -89.73581 6107 ft 250 kts 244°
2026-04-23 13:10 35.34650 -89.75496 5886 ft 244 kts 244°
2026-04-23 13:10 35.33949 -89.77370 5683 ft 241 kts 244°
2026-04-23 13:10 35.33479 -89.78629 5566 ft 240 kts 244°
2026-04-23 13:10 35.32793 -89.80465 5353 ft 240 kts 244°
2026-04-23 13:11 35.32100 -89.82320 5152 ft 239 kts 244°
2026-04-23 13:11 35.31407 -89.84168 4954 ft 239 kts 244°
2026-04-23 13:11 35.30713 -89.86014 4762 ft 237 kts 244°
2026-04-23 13:11 35.30024 -89.87847 4553 ft 236 kts 243°
2026-04-23 13:12 35.29334 -89.89675 4354 ft 236 kts 243°
2026-04-23 13:12 35.28649 -89.91499 4167 ft 235 kts 243°
2026-04-23 13:12 35.27964 -89.93316 3960 ft 234 kts 243°
2026-04-23 13:12 35.27292 -89.95112 3773 ft 236 kts 243°
2026-04-23 13:13 35.26407 -89.96740 3545 ft 229 kts 218°
2026-04-23 13:13 35.24981 -89.97525 3363 ft 225 kts 188°
2026-04-23 13:13 35.23439 -89.97632 3190 ft 222 kts 183°
2026-04-23 13:13 35.21904 -89.97653 3095 ft 222 kts 181°
2026-04-23 13:14 35.20349 -89.97626 3048 ft 220 kts 180°
2026-04-23 13:14 35.18863 -89.97595 3022 ft 207 kts 181°
2026-04-23 13:14 35.17447 -89.97563 2732 ft 203 kts 180°
2026-04-23 13:14 35.16044 -89.97529 2474 ft 200 kts 180°
2026-04-23 13:15 35.14683 -89.97500 2201 ft 195 kts 180°
2026-04-23 13:15 35.13385 -89.97475 1995 ft 178 kts 181°
2026-04-23 13:15 35.12159 -89.97448 1726 ft 174 kts 181°
2026-04-23 13:15 35.10999 -89.97424 1478 ft 159 kts 181°
2026-04-23 13:16 35.09970 -89.97402 1304 ft 151 kts 180°
2026-04-23 13:16 35.08998 -89.97382 1130 ft 156 kts 180°
2026-04-23 13:16 35.07923 -89.97359 934 ft 153 kts 181°
2026-04-23 13:16 35.06877 -89.97337 713 ft 149 kts 178°
2026-04-23 13:17 35.05838 -89.97315 536 ft 153 kts 179°
2026-04-23 13:17 35.04768 -89.97293 371 ft 150 kts 180°
2026-04-23 13:17 35.03815 -89.97274 331 ft 115 kts 179°
2026-04-23 13:17 35.03247 -89.97263 333 ft 48 kts 179°
2026-04-23 13:18 35.02949 -89.97258 332 ft 33 kts 182°
2026-04-23 13:18 35.02744 -89.97326 330 ft 23 kts 211°
2026-04-23 13:18 35.02734 -89.97417 328 ft 12 kts 327°
2026-04-23 13:18 35.02821 -89.97429 330 ft 13 kts 359°
2026-04-23 13:19 35.02910 -89.97431 330 ft 13 kts 359°
2026-04-23 13:19 35.03026 -89.97433 330 ft 22 kts 359°
2026-04-23 13:19 35.03207 -89.97436 329 ft 27 kts 359°
2026-04-23 13:19 35.03395 -89.97441 329 ft 27 kts 359°
2026-04-23 13:20 35.03582 -89.97445 329 ft 27 kts 359°
2026-04-23 13:20 35.03769 -89.97449 329 ft 27 kts 359°
2026-04-23 13:20 35.03957 -89.97453 330 ft 27 kts 359°
2026-04-23 13:20 35.04144 -89.97457 330 ft 27 kts 359°
2026-04-23 13:21 35.04329 -89.97461 331 ft 27 kts 359°
2026-04-23 13:21 35.04516 -89.97465 330 ft 27 kts 359°
2026-04-23 13:21 35.04703 -89.97468 330 ft 27 kts 359°
2026-04-23 13:21 35.04891 -89.97473 329 ft 27 kts 359°
2026-04-23 13:22 35.05078 -89.97476 329 ft 27 kts 359°
2026-04-23 13:22 35.05265 -89.97481 329 ft 27 kts 359°
2026-04-23 13:22 35.05452 -89.97485 329 ft 27 kts 359°
2026-04-23 13:22 35.05639 -89.97488 332 ft 27 kts 359°
2026-04-23 13:23 35.05818 -89.97485 333 ft 23 kts 356°
2026-04-23 13:23 35.05925 -89.97483 334 ft 14 kts 45°
2026-04-23 13:23 35.05939 -89.97370 332 ft 14 kts 92°
2026-04-23 13:23 35.05935 -89.97252 331 ft 14 kts 92°
2026-04-23 13:24 35.05932 -89.97135 334 ft 14 kts 92°
2026-04-23 13:24 35.05929 -89.97018 335 ft 14 kts 91°
2026-04-23 13:24 35.05926 -89.96901 335 ft 14 kts 92°
2026-04-23 13:24 35.05923 -89.96784 330 ft 14 kts 91°
2026-04-23 13:25 35.05920 -89.96668 331 ft 14 kts 92°
2026-04-23 13:25 35.05944 -89.96560 330 ft 14 kts 43°
2026-04-23 13:25 35.06022 -89.96492 330 ft 14 kts 37°
2026-04-23 13:25 35.06046 -89.96384 334 ft 14 kts 92°
2026-04-23 13:26 35.06043 -89.96266 335 ft 14 kts 92°
2026-04-23 13:26 35.06040 -89.96149 335 ft 14 kts 92°
2026-04-23 13:26 35.06037 -89.96068 331 ft 5 kts 90°
2026-04-23 13:26 35.06061 -89.96043 331 ft 4 kts 13°
2026-04-23 13:27 35.06090 -89.96041 332 ft 1 kts
2026-04-23 13:27 35.06097 -89.96041 330 ft 1 kts
2026-04-23 13:27 35.06101 -89.96041 331 ft 0 kts